Content
SEND FEEDBACK

Daily
Averages
Monthly
Summary
United States of America

SPRAGUE, WEST VIRGINIA


Home > North America > United States > West Virginia
Elevation: 2371 feet     Latitude: 37 47N     Longitude: 081 11W

WEATHER
 
SELECT A DAY
Number of Records: 241,054;   Date Range: 1/1/95 - 7/27/14
 
SHARE

PRINT THIS DATA

[ ← Previous Day ]
WEATHER ALMANAC - JANUARY 3, 2013
[ Next Day → ]
[ °C ]   °F
Weather ElementAverageHighLow
Temperature25.8 °F34 °F (3:51 pm)18 °F (6:51 am)
Dewpoint17.7 °F19.9 °F (5:51 pm)15.1 °F (6:51 am)
Humidity72.7 %89 % (3:51 am)52 % (2:51 pm)
Barometer30.26 in30.32 in (8:51 pm)30.12 in (2:51 pm)
Wind Speed4.3 mph10.4 mph (3:51 pm)
Weather ElementAverage
Visibility9.8 mi
Wind DirectionSSW (196.4 °)

Weather ElementTotal
Precipitation---
Heating Degree Days39 (Base 65)
Averaged from 22 records on January 3, 2013
WEATHER CONDITIONS BREAKOUT
WIND DIRECTION BREAKOUT
WEATHER BY HOUR - JANUARY 3, 2013
[ °C ]   °F
Local TimeTemperatureDewpointHumidityBarometerVisibilityWind DirectionWind SpeedGust SpeedPrecipitationEventsConditions
1:51 AM21.9 °F18.0 °F85 %30.22 in10.0 miCalmClear
2:51 AM21.9 °F18.0 °F85 %30.23 in10.0 miCalmClear
3:51 AM19.9 °F17.1 °F89 %30.22 in10.0 miSouth (170°)3.5 mphClear
4:51 AM19.9 °F16.0 °F85 %30.22 in10.0 miCalmClear
5:51 AM19.0 °F16.0 °F88 %30.24 in9.0 miCalmClear
6:51 AM18.0 °F15.1 °F88 %30.27 in10.0 miSouth (180°)5.8 mphClear
7:51 AM19.0 °F16.0 °F88 %30.27 in8.0 miSouth (190°)3.5 mphClear
8:51 AM21.0 °F17.1 °F85 %30.28 in8.0 miCalmClear
9:51 AM23.0 °F19.0 °F85 %30.29 in10.0 miSW (220°)3.5 mphClear
11:51 AM28.0 °F17.1 °F63 %30.27 in10.0 miWest (260°)4.6 mphClear
12:51 PM30.0 °F17.1 °F59 %30.24 in10.0 miWest (270°)6.9 mphClear
1:51 PM32.0 °F17.1 °F54 %30.22 in10.0 miWest (260°)8.1 mphClear
2:51 PM33.8 °F17.6 °F52 %30.12 in10.0 miWest (260°)8.1 mphClear
3:51 PM34.0 °F18.0 °F52 %30.25 in10.0 miWest (270°)10.4 mphClear
4:51 PM33.1 °F17.1 °F52 %30.26 in10.0 miWest (280°)8.1 mphClear
5:51 PM30.9 °F19.9 °F64 %30.29 in10.0 miWest (260°)4.6 mphClear
6:51 PM28.9 °F19.9 °F69 %30.30 in10.0 miWSW (240°)3.5 mphClear
7:51 PM28.0 °F19.9 °F72 %30.31 in10.0 miWest (260°)3.5 mphClear
8:51 PM27.0 °F19.0 °F72 %30.32 in10.0 miWest (280°)4.6 mphClear
9:51 PM27.0 °F19.0 °F72 %30.32 in10.0 miNW (310°)3.5 mphClear
10:51 PM26.1 °F18.0 °F71 %30.32 in10.0 miWNW (300°)6.9 mphClear
11:51 PM26.1 °F17.1 °F69 %30.32 in10.0 miNW (310°)5.8 mphMostly Cloudy
Hourly data recorded from KBKW, located miles away from Sprague, West Virginia







STORIES FROM OUR PARTNERS